Location: Blazny
(46.0612°N, 84.4033°W)
Time: 19:20:08
(UTC-04:00)

Envisat - Pass Details

Date: 16 September 2024
Orbit: 762 x 764 km, 98.3° (Epoch: 11 October)

Event Time Altitude Azimuth Distance (km) Brightness Sun altitude
Rises 04:29:37 0° 17° (NNE) 3,237 7.0 -27.8°
Reaches altitude 10° 04:31:59 10° 22° (NNE) 2,307 6.2 -27.4°
Maximum altitude 04:36:58 54° 100° (E) 924 3.5 -26.8°
Enters shadow 04:38:10 44° 145° (SE) 1,055 3.6 -26.6°
